Voltar ao catálogo

STARLINK-34932

AtivoComunicaçõesSSO
NORAD 65179·PAYLOAD·🇺🇸 United States

Lançado Aug 14, 2025 de Vandenberg Space Force Base

Loading…

Próximas Passagens (próximas 24 horas)

TLE

AtualizadoSource: CelesTrak SupGP

Época: Sep 15, 2026, 03:42 UTC

1 65179C 25175F   26258.15465278 -.00014626  00000+0 -45391-3 0  2582
2 65179  97.2845 127.1951 0002131  95.3195 232.5132 15.33452814    15

Acompanhe STARLINK-34932 em tempo real com AllMySat

Download on the App Store